User: anonymous   Login
Location: Brno
(49.2000°N, 16.6330°E)
Time: 09:26:41
(UTC+01:00)
Language:

Iridium 2 - Orbit

View from above orbital plane
View from above orbital plane
View from above satellite
View from above satellite

Ground track
Ground track

The orbit data is extracted from the following two-line orbital elements,

1 25527U 98066A   14355.58346815  .00014021  00000-0  85550-3 0  4885
2 25527 085.5325 206.5773 0010863 165.9990 223.4589 15.10171254880385
Epoch (UTC): 21 December 2014 14:00:11
Eccentricity: 0.0010863
inclination: 85.5325°
perigee height: 528 km
apogee height: 543 km
right ascension of ascending node: 206.5773°
argument of perigee: 165.9990°
revolutions per day: 15.10171254
mean anomaly at epoch: 223.4589°
orbit number at epoch: 88038

The dashed part of the orbit path shows where the satellite is in the earth's shadow,  

DLR